Change the Weather History Date:

Thursday, June 27, 2013

  Actual Average Record
Temperature  
Mean Temperature 74 °F -  
Max Temperature 86 °F 80 °F 86 °F (2013)
Min Temperature 63 °F 55 °F 49 °F (2014)
Cooling Degree Days 10    
Growing Degree Days 24 (Base 50)    
Moisture  
Dew Point 66 °F    
Average Humidity 86    
Maximum Humidity 99    
Minimum Humidity 51    
Precipitation  
Precipitation 0.28 in - - ()
Sea Level Pressure  
Sea Level Pressure 29.73 in    
Wind  
Wind Speed 3 mph (SSE)    
Max Wind Speed 10 mph    
Max Gust Speed 17 mph    
Visibility 10 miles    
Events      
Averages and records for this station are not official NWS values.
T = Trace of Precipitation, MM = Missing Value Source: NWS Daily Summary

Daily Weather History Graph

Daily Weather History Graph

Search for Another Location

Airport or City:

Trip Planner

Search our weather history database for the weather conditions in past years. The results will help you decide how hot, cold, wet, or windy it might be!

Date:

Astronomy

Jun. 27, 2013 Rise Set
Actual Time 5:07 AM CDT 8:41 PM CDT
Civil Twilight 4:30 AM CDT 9:19 PM CDT
Nautical Twilight 3:40 AM CDT 10:08 PM CDT
Astronomical Twilight 2:36 AM CDT 11:12 PM CDT
Moon 11:23 PM CDT (6/27) 10:21 AM CDT (6/27)
Length of Visible Light 16h 48m
Length of Day
15h 34m
Waning Gibbous, 76% of the Moon is Illuminated
Jun 27
Waning Gibbous
Jun 29
Last Quarter
Jul 8
New
Jul 15
First Quarter
Jul 22
Full

Hourly Weather History & Observations

Time (CDT) Temp. Heat Index Dew Point Humidity Pressure Visibility Wind Dir Wind Speed Gust Speed Precip Events Conditions
12:15 AM 68.2 °F - 63.0 °F 83% 29.77 in 10.0 mi ESE 3.5 mph - N/A   Clear
12:35 AM 67.3 °F - 63.0 °F 86% 29.77 in 10.0 mi Calm Calm - N/A   Clear
1:15 AM 67.6 °F - 62.8 °F 84% 29.77 in 10.0 mi SE 6.9 mph - N/A   Mostly Cloudy
1:35 AM 67.1 °F - 62.8 °F 86% 29.78 in 10.0 mi Calm Calm - N/A   Mostly Cloudy
1:55 AM 66.6 °F - 63.3 °F 89% 29.78 in 10.0 mi Calm Calm - N/A   Overcast
2:15 AM 66.2 °F - 63.7 °F 92% 29.79 in 10.0 mi North 5.8 mph - N/A   Overcast
2:35 AM 65.7 °F - 64.0 °F 94% 29.78 in 10.0 mi NE 3.5 mph - 0.02 in   Overcast
2:55 AM 65.1 °F - 63.7 °F 95% 29.78 in 10.0 mi Calm Calm - 0.03 in   Overcast
3:15 AM 64.8 °F - 63.5 °F 96% 29.79 in 10.0 mi Calm Calm - 0.01 in   Overcast
3:35 AM 64.4 °F - 63.5 °F 97% 29.77 in 10.0 mi Calm Calm - 0.01 in   Overcast
3:55 AM 64.4 °F - 63.7 °F 98% 29.77 in 10.0 mi SSW 3.5 mph - 0.01 in   Overcast
4:15 AM 64.4 °F - 63.9 °F 98% 29.76 in 10.0 mi South 3.5 mph - N/A   Mostly Cloudy
4:35 AM 64.4 °F - 63.5 °F 97% 29.76 in 10.0 mi SSE 3.5 mph - N/A   Mostly Cloudy
4:55 AM 64.4 °F - 63.5 °F 97% 29.75 in 10.0 mi Calm Calm - N/A   Scattered Clouds
5:15 AM 63.7 °F - 63.0 °F 97% 29.75 in 10.0 mi West 3.5 mph - N/A   Scattered Clouds
5:35 AM 63.5 °F - 63.1 °F 99% 29.75 in 7.0 mi Calm Calm - N/A   Clear
5:55 AM 63.1 °F - 63.0 °F 99% 29.74 in 5.0 mi Calm Calm - N/A   Scattered Clouds
6:15 AM 64.6 °F - 64.4 °F 99% 29.75 in 7.0 mi Calm Calm - N/A   Mostly Cloudy
6:35 AM 65.3 °F - 64.6 °F 98% 29.76 in 10.0 mi Calm Calm - N/A   Scattered Clouds
6:55 AM 65.8 °F - 65.1 °F 98% 29.76 in 10.0 mi Calm Calm - N/A   Scattered Clouds
7:15 AM 66.2 °F - 65.3 °F 97% 29.76 in 10.0 mi North 3.5 mph - N/A   Scattered Clouds
7:35 AM 66.6 °F - 65.1 °F 95% 29.76 in 10.0 mi Calm Calm - N/A   Mostly Cloudy
7:55 AM 67.8 °F - 65.7 °F 93% 29.76 in 10.0 mi Calm Calm - N/A   Mostly Cloudy
8:15 AM 68.0 °F - 65.7 °F 92% 29.76 in 10.0 mi Calm Calm - N/A   Scattered Clouds
8:35 AM 68.2 °F - 65.3 °F 90% 29.76 in 10.0 mi Calm Calm - N/A   Scattered Clouds
8:55 AM 68.9 °F - 65.7 °F 89% 29.76 in 10.0 mi Calm Calm - N/A   Scattered Clouds
9:15 AM 71.1 °F - 66.4 °F 85% 29.75 in 10.0 mi Calm Calm - N/A   Mostly Cloudy
9:35 AM 72.9 °F - 67.1 °F 82% 29.75 in 10.0 mi Calm Calm - N/A   Mostly Cloudy
9:55 AM 73.4 °F - 67.6 °F 82% 29.74 in 10.0 mi WNW 3.5 mph - N/A   Mostly Cloudy
10:15 AM 74.7 °F - 68.4 °F 81% 29.74 in 10.0 mi Calm Calm - N/A   Overcast
10:35 AM 75.7 °F - 68.5 °F 78% 29.74 in 10.0 mi Calm Calm - N/A   Mostly Cloudy
10:55 AM 77.2 °F - 68.5 °F 75% 29.73 in 10.0 mi Calm Calm - N/A   Scattered Clouds
11:15 AM 76.6 °F - 69.1 °F 77% 29.73 in 10.0 mi South 5.8 mph - N/A   Mostly Cloudy
11:35 AM 78.1 °F - 69.4 °F 75% 29.72 in 10.0 mi South 6.9 mph - N/A   Mostly Cloudy
11:55 AM 76.1 °F - 69.1 °F 79% 29.72 in 10.0 mi South 5.8 mph - N/A   Mostly Cloudy
12:15 PM 76.1 °F - 69.1 °F 79% 29.72 in 10.0 mi South 6.9 mph - N/A   Scattered Clouds
12:35 PM 75.2 °F - 69.1 °F 81% 29.72 in 10.0 mi SSE 5.8 mph - N/A   Scattered Clouds
12:55 PM 75.2 °F - 69.4 °F 82% 29.72 in 10.0 mi South 5.8 mph - N/A   Scattered Clouds
1:15 PM 75.4 °F - 70.0 °F 83% 29.71 in 10.0 mi South 4.6 mph - N/A   Clear
1:35 PM 78.3 °F - 70.7 °F 77% 29.71 in 10.0 mi South 5.8 mph - N/A   Scattered Clouds
1:55 PM 80.6 °F 84.4 °F 71.1 °F 73% 29.70 in 10.0 mi SSE 5.8 mph - N/A   Clear
2:15 PM 82.2 °F 86.0 °F 70.0 °F 66% 29.70 in 10.0 mi SSW 3.5 mph - N/A   Scattered Clouds
2:35 PM 83.5 °F 86.7 °F 68.2 °F 60% 29.69 in 10.0 mi WSW 6.9 mph - N/A   Scattered Clouds
2:55 PM 86.0 °F 88.2 °F 66.2 °F 51% 29.69 in 10.0 mi SW 10.4 mph - N/A   Mostly Cloudy
3:15 PM 84.2 °F 86.3 °F 65.8 °F 54% 29.68 in 10.0 mi NW 10.4 mph - N/A   Mostly Cloudy
3:35 PM 81.0 °F 83.2 °F 66.4 °F 61% 29.68 in 10.0 mi NNW 3.5 mph - N/A   Scattered Clouds
3:55 PM 83.5 °F 85.3 °F 65.3 °F 54% 29.66 in 10.0 mi NW 3.5 mph - N/A   Scattered Clouds
4:15 PM 81.3 °F 83.2 °F 65.1 °F 58% 29.66 in 10.0 mi NE 3.5 mph - N/A   Scattered Clouds
4:35 PM 73.6 °F - 68.4 °F 84% 29.69 in 4.0 mi NNW 3.5 mph - 0.09 in   Mostly Cloudy
4:55 PM 69.3 °F - 63.7 °F 82% 29.69 in 7.0 mi East 8.1 mph 17.3 mph 0.20 in   Overcast
5:15 PM 67.1 °F - 64.4 °F 91% 29.68 in 10.0 mi South 8.1 mph - 0.03 in   Overcast
5:35 PM 66.6 °F - 63.3 °F 89% 29.69 in 10.0 mi South 3.5 mph - 0.04 in   Mostly Cloudy
5:55 PM 66.6 °F - 63.0 °F 88% 29.68 in 10.0 mi Calm Calm - 0.04 in   Overcast
6:15 PM 69.1 °F - 64.8 °F 86% 29.68 in 10.0 mi NE 5.8 mph - N/A   Mostly Cloudy
6:35 PM 70.2 °F - 65.5 °F 85% 29.69 in 10.0 mi North 3.5 mph - N/A   Scattered Clouds
6:55 PM 72.0 °F - 67.3 °F 85% 29.69 in 10.0 mi NE 5.8 mph - N/A   Scattered Clouds
7:15 PM 70.7 °F - 67.5 °F 89% 29.69 in 10.0 mi NE 3.5 mph - N/A   Scattered Clouds
7:35 PM 70.0 °F - 67.3 °F 91% 29.70 in 10.0 mi Calm Calm - N/A   Scattered Clouds
7:55 PM 69.6 °F - 67.8 °F 94% 29.69 in 10.0 mi Calm Calm - N/A   Clear
8:15 PM 69.1 °F - 67.6 °F 95% 29.70 in 10.0 mi WNW 3.5 mph - N/A   Scattered Clouds
8:35 PM 68.4 °F - 67.3 °F 96% 29.72 in 10.0 mi SSW 5.8 mph - N/A   Mostly Cloudy
8:55 PM 68.5 °F - 65.8 °F 91% 29.71 in 10.0 mi West 4.6 mph - N/A   Overcast
9:15 PM 67.3 °F - 65.8 °F 95% 29.70 in 10.0 mi SSE 3.5 mph - N/A   Mostly Cloudy
9:35 PM 66.7 °F - 65.8 °F 97% 29.71 in 10.0 mi Calm Calm - N/A   Mostly Cloudy
9:55 PM 66.4 °F - 65.5 °F 97% 29.70 in 10.0 mi Calm Calm - N/A   Mostly Cloudy
10:15 PM 66.2 °F - 65.5 °F 98% 29.71 in 10.0 mi Calm Calm - N/A   Mostly Cloudy
10:35 PM 66.2 °F - 65.5 °F 98% 29.70 in 10.0 mi NNE 3.5 mph - N/A   Mostly Cloudy
10:55 PM 66.2 °F - 64.9 °F 96% 29.71 in 10.0 mi NNE 3.5 mph - N/A   Overcast
11:15 PM 65.7 °F - 63.1 °F 92% 29.71 in 10.0 mi ENE 3.5 mph - N/A   Overcast
11:35 PM 65.3 °F - 62.8 °F 92% 29.70 in 10.0 mi Calm Calm - N/A   Overcast
11:55 PM 63.7 °F - 62.6 °F 96% 29.68 in 10.0 mi Calm Calm - N/A   Overcast